VRG756 EGLL-EKCH

Flight info

Callsign VRG756
Flight time 1h 17m
Altitude 39000
Route BPK Q295 SOMVA DCT MAVAS DCT ROCZO DCT DOSUR P729 TUDLO
Aircraft MD11/H-SDE1E2E3FGHIJ2J3J4J5M1RWXY/LB1D1

Departure

Time 2026-05-06 15:58
Airport London Heathrow Airport (EGLL)

Arrival

Time 2026-05-06 17:16
Airport Copenhagen Kastrup Airport (EKCH)
Time Latitude Longitude Altitude Speed Heading
2026-05-06 14:52 51.46939 -0.44192 95 ft 0 kts 270°
2026-05-06 15:45 51.46939 -0.44121 94 ft 12 kts 270°
2026-05-06 15:45 51.46937 -0.44048 94 ft 0 kts 262°
2026-05-06 15:45 51.46937 -0.44045 94 ft 1 kts 253°
2026-05-06 15:45 51.46938 -0.44037 94 ft 1 kts 234°
2026-05-06 15:46 51.46936 -0.44041 94 ft 1 kts 233°
2026-05-06 15:46 51.46935 -0.44044 94 ft 0 kts 233°
2026-05-06 15:46 51.46932 -0.44049 96 ft 1 kts 233°
2026-05-06 15:47 51.46927 -0.44060 95 ft 2 kts 232°
2026-05-06 15:47 51.46918 -0.44078 95 ft 2 kts 232°
2026-05-06 15:47 51.46908 -0.44097 97 ft 0 kts 227°
2026-05-06 15:47 51.46904 -0.44101 98 ft 1 kts 216°
2026-05-06 15:48 51.46899 -0.44100 97 ft 1 kts 189°
2026-05-06 15:48 51.46892 -0.44093 97 ft 3 kts 155°
2026-05-06 15:48 51.46840 -0.44060 95 ft 13 kts 163°
2026-05-06 15:48 51.46771 -0.44046 96 ft 3 kts 194°
2026-05-06 15:49 51.46766 -0.44054 95 ft 2 kts 218°
2026-05-06 15:49 51.46753 -0.44117 96 ft 9 kts 269°
2026-05-06 15:49 51.46753 -0.44238 94 ft 12 kts 269°
2026-05-06 15:49 51.46751 -0.44385 94 ft 14 kts 268°
2026-05-06 15:50 51.46749 -0.44498 95 ft 16 kts 268°
2026-05-06 15:50 51.46751 -0.44681 94 ft 17 kts 270°
2026-05-06 15:50 51.46751 -0.44957 94 ft 20 kts 270°
2026-05-06 15:50 51.46751 -0.45189 94 ft 21 kts 270°
2026-05-06 15:51 51.46752 -0.45349 94 ft 21 kts 270°
2026-05-06 15:51 51.46754 -0.45582 94 ft 21 kts 272°
2026-05-06 15:51 51.46750 -0.45804 94 ft 20 kts 266°
2026-05-06 15:51 51.46747 -0.46018 97 ft 19 kts 269°
2026-05-06 15:52 51.46745 -0.46223 97 ft 18 kts 269°
2026-05-06 15:52 51.46747 -0.46417 97 ft 16 kts 274°
2026-05-06 15:52 51.46749 -0.46596 94 ft 16 kts 269°
2026-05-06 15:52 51.46747 -0.46774 97 ft 16 kts 269°
2026-05-06 15:53 51.46746 -0.46955 97 ft 17 kts 269°
2026-05-06 15:53 51.46745 -0.47144 95 ft 17 kts 269°
2026-05-06 15:53 51.46744 -0.47341 94 ft 18 kts 269°
2026-05-06 15:53 51.46743 -0.47544 94 ft 19 kts 270°
2026-05-06 15:54 51.46743 -0.47751 94 ft 18 kts 270°
2026-05-06 15:54 51.46744 -0.47956 94 ft 18 kts 270°
2026-05-06 15:54 51.46744 -0.48157 94 ft 18 kts 270°
2026-05-06 15:54 51.46744 -0.48353 94 ft 17 kts 268°
2026-05-06 15:55 51.46741 -0.48539 94 ft 11 kts 270°
2026-05-06 15:55 51.46741 -0.48631 94 ft 8 kts 270°
2026-05-06 15:55 51.46740 -0.48711 94 ft 6 kts 265°
2026-05-06 15:55 51.46727 -0.48740 97 ft 2 kts 219°
2026-05-06 15:56 51.46716 -0.48745 95 ft 1 kts 196°
2026-05-06 15:56 51.46708 -0.48745 95 ft 2 kts 184°
2026-05-06 15:56 51.46687 -0.48746 95 ft 4 kts 183°
2026-05-06 15:56 51.46648 -0.48750 95 ft 7 kts 183°
2026-05-06 15:57 51.46595 -0.48769 94 ft 9 kts 199°
2026-05-06 15:57 51.46536 -0.48794 95 ft 4 kts 181°
2026-05-06 15:57 51.46507 -0.48777 97 ft 5 kts 153°
2026-05-06 15:57 51.46483 -0.48739 96 ft 1 kts 118°
2026-05-06 15:58 51.46478 -0.48698 96 ft 13 kts 99°
2026-05-06 15:58 51.46479 -0.48371 94 ft 52 kts 89°
2026-05-06 15:58 51.46483 -0.47320 97 ft 139 kts 89°
2026-05-06 15:58 51.46488 -0.45467 704 ft 171 kts 85°
2026-05-06 15:59 51.46499 -0.43548 1887 ft 187 kts 82°
2026-05-06 15:59 51.46926 -0.41401 2568 ft 218 kts 54°
2026-05-06 15:59 51.47925 -0.39364 3245 ft 241 kts 47°
2026-05-06 15:59 51.49067 -0.37343 4484 ft 235 kts 46°
2026-05-06 16:00 51.50215 -0.35332 5391 ft 262 kts 47°
2026-05-06 16:00 51.51471 -0.32991 5811 ft 298 kts 51°
2026-05-06 16:00 51.52849 -0.30196 5974 ft 340 kts 49°
2026-05-06 16:00 51.54288 -0.27315 5982 ft 315 kts 49°
2026-05-06 16:01 51.55588 -0.24728 5987 ft 284 kts 49°
2026-05-06 16:01 51.56780 -0.22361 5985 ft 265 kts 49°
2026-05-06 16:01 51.57952 -0.20060 6033 ft 264 kts 48°
2026-05-06 16:01 51.59362 -0.18174 6036 ft 263 kts 26°
2026-05-06 16:02 51.61064 -0.17089 6046 ft 263 kts 17°
2026-05-06 16:02 51.62819 -0.16240 6047 ft 263 kts 15°
2026-05-06 16:02 51.64586 -0.15434 6046 ft 264 kts 15°
2026-05-06 16:02 51.66349 -0.14632 6049 ft 263 kts 15°
2026-05-06 16:03 51.68113 -0.13827 6047 ft 264 kts 15°
2026-05-06 16:03 51.69880 -0.13018 6055 ft 264 kts 15°
2026-05-06 16:03 51.71620 -0.12219 6047 ft 263 kts 15°
2026-05-06 16:03 51.73300 -0.11118 6427 ft 262 kts 30°
2026-05-06 16:04 51.74662 -0.09136 6967 ft 268 kts 54°
2026-05-06 16:04 51.75367 -0.06332 7699 ft 273 kts 76°
2026-05-06 16:04 51.75687 -0.03263 8820 ft 280 kts 79°
2026-05-06 16:04 51.75960 0.00026 9215 ft 316 kts 81°
2026-05-06 16:05 51.76256 0.03769 9424 ft 352 kts 81°
2026-05-06 16:05 51.76565 0.07693 10393 ft 360 kts 81°
2026-05-06 16:05 51.76886 0.11747 11453 ft 366 kts 81°
2026-05-06 16:05 51.77216 0.15869 12425 ft 374 kts 81°
2026-05-06 16:06 51.77553 0.20072 13482 ft 380 kts 81°
2026-05-06 16:06 51.77899 0.24398 14023 ft 393 kts 81°
2026-05-06 16:06 51.78246 0.28745 14381 ft 391 kts 81°
2026-05-06 16:06 51.78589 0.33051 14746 ft 391 kts 82°
2026-05-06 16:07 51.78939 0.37438 14948 ft 394 kts 81°
2026-05-06 16:07 51.79292 0.41846 14979 ft 395 kts 82°
2026-05-06 16:07 51.79643 0.46249 15039 ft 398 kts 81°
2026-05-06 16:07 51.79994 0.50661 16140 ft 397 kts 82°
2026-05-06 16:08 51.80347 0.55122 17147 ft 402 kts 82°
2026-05-06 16:08 51.80703 0.59648 18056 ft 409 kts 82°
2026-05-06 16:08 51.81130 0.64229 18812 ft 415 kts 76°
2026-05-06 16:08 51.81956 0.68717 19654 ft 419 kts 69°
2026-05-06 16:09 51.83012 0.73085 20427 ft 424 kts 66°
2026-05-06 16:09 51.84182 0.77491 21238 ft 429 kts 65°
2026-05-06 16:09 51.85389 0.81953 22010 ft 435 kts 65°
2026-05-06 16:09 51.86599 0.86470 22804 ft 440 kts 66°
2026-05-06 16:10 51.87808 0.91059 23552 ft 446 kts 66°
2026-05-06 16:10 51.89013 0.95700 24248 ft 450 kts 66°
2026-05-06 16:10 51.90222 1.00393 25004 ft 453 kts 67°
2026-05-06 16:10 51.91431 1.05116 25700 ft 457 kts 67°
2026-05-06 16:11 51.92653 1.09901 26390 ft 461 kts 67°
2026-05-06 16:11 51.93883 1.14728 27039 ft 465 kts 67°
2026-05-06 16:11 51.95121 1.19600 27705 ft 469 kts 67°
2026-05-06 16:11 51.96353 1.24453 28334 ft 473 kts 67°
2026-05-06 16:12 51.97615 1.29436 28962 ft 478 kts 67°
2026-05-06 16:12 51.98881 1.34442 29567 ft 482 kts 67°
2026-05-06 16:12 52.00156 1.39498 30143 ft 486 kts 67°
2026-05-06 16:12 52.01438 1.44594 30689 ft 489 kts 67°
2026-05-06 16:13 52.02721 1.49703 31361 ft 488 kts 68°
2026-05-06 16:13 52.04000 1.54809 32055 ft 487 kts 67°
2026-05-06 16:13 52.05274 1.59908 32719 ft 486 kts 67°
2026-05-06 16:13 52.06543 1.64997 33390 ft 484 kts 67°
2026-05-06 16:14 52.07805 1.70071 34042 ft 483 kts 67°
2026-05-06 16:14 52.09063 1.75139 34538 ft 483 kts 68°
2026-05-06 16:14 52.10302 1.80143 35008 ft 483 kts 68°
2026-05-06 16:14 52.11554 1.85211 35442 ft 484 kts 68°
2026-05-06 16:15 52.12810 1.90306 35887 ft 485 kts 68°
2026-05-06 16:15 52.14063 1.95399 36318 ft 486 kts 68°
2026-05-06 16:15 52.15319 2.00521 36721 ft 486 kts 68°
2026-05-06 16:15 52.16571 2.05634 37110 ft 488 kts 68°
2026-05-06 16:16 52.17819 2.10783 37543 ft 488 kts 69°
2026-05-06 16:16 52.19051 2.15945 37947 ft 488 kts 69°
2026-05-06 16:16 52.20279 2.21106 38356 ft 488 kts 69°
2026-05-06 16:16 52.21516 2.26278 38748 ft 488 kts 69°
2026-05-06 16:17 52.22743 2.31386 38903 ft 493 kts 69°
2026-05-06 16:17 52.24000 2.36613 38944 ft 496 kts 69°
2026-05-06 16:17 52.26517 2.47076 38955 ft 492 kts 69°
2026-05-06 16:18 52.29012 2.57494 38953 ft 493 kts 69°
2026-05-06 16:18 52.31423 2.67995 38953 ft 494 kts 72°
2026-05-06 16:19 52.33386 2.78745 38948 ft 493 kts 75°
2026-05-06 16:19 52.35219 2.89567 38948 ft 493 kts 75°
2026-05-06 16:20 52.37060 3.00321 38937 ft 493 kts 75°
2026-05-06 16:20 52.38933 3.11134 38943 ft 494 kts 73°
2026-05-06 16:21 52.41824 3.21315 38937 ft 494 kts 58°
2026-05-06 16:21 52.45701 3.30632 38941 ft 494 kts 54°
2026-05-06 16:22 52.49631 3.39897 38943 ft 495 kts 55°
2026-05-06 16:22 52.53466 3.49298 38933 ft 496 kts 56°
2026-05-06 16:23 52.57227 3.58714 38938 ft 497 kts 57°
2026-05-06 16:23 52.61007 3.68229 38931 ft 497 kts 57°
2026-05-06 16:24 52.64797 3.77790 38937 ft 497 kts 57°
2026-05-06 16:24 52.68548 3.87282 38937 ft 497 kts 57°
2026-05-06 16:25 52.72319 3.96860 38945 ft 497 kts 57°
2026-05-06 16:25 52.76077 4.06439 38931 ft 497 kts 57°
2026-05-06 16:26 52.79828 4.16041 38942 ft 497 kts 57°
2026-05-06 16:26 52.83582 4.25683 38936 ft 497 kts 57°
2026-05-06 16:27 52.87273 4.35285 38938 ft 497 kts 58°
2026-05-06 16:27 52.90971 4.44979 38944 ft 497 kts 58°
2026-05-06 16:28 52.94680 4.54654 38939 ft 498 kts 57°
2026-05-06 16:28 52.98401 4.64361 38944 ft 498 kts 57°
2026-05-06 16:29 53.02092 4.74020 38939 ft 498 kts 57°
2026-05-06 16:29 53.05791 4.83744 38940 ft 498 kts 58°
2026-05-06 16:30 53.08861 4.91842 38938 ft 498 kts 58°
2026-05-06 16:30 53.13159 5.03225 38939 ft 498 kts 58°
2026-05-06 16:31 53.16834 5.12998 38873 ft 496 kts 58°
2026-05-06 16:31 53.20491 5.22763 38932 ft 496 kts 58°
2026-05-06 16:32 53.24118 5.32484 38941 ft 496 kts 58°
2026-05-06 16:32 53.27756 5.42273 38942 ft 496 kts 58°
2026-05-06 16:33 53.31367 5.52111 38953 ft 496 kts 58°
2026-05-06 16:34 53.36762 5.66915 38937 ft 496 kts 58°
2026-05-06 16:34 53.40348 5.76712 38941 ft 497 kts 58°
2026-05-06 16:35 53.43959 5.86597 38937 ft 496 kts 58°
2026-05-06 16:35 53.47565 5.96509 38940 ft 496 kts 58°
2026-05-06 16:36 53.51155 6.06417 38935 ft 496 kts 58°
2026-05-06 16:36 53.54733 6.16336 38937 ft 496 kts 58°
2026-05-06 16:37 53.58283 6.26215 39056 ft 496 kts 58°
2026-05-06 16:37 53.61869 6.36232 38942 ft 499 kts 59°
2026-05-06 16:38 53.64848 6.44585 38933 ft 500 kts 59°
2026-05-06 16:38 53.68428 6.54663 38930 ft 500 kts 59°
2026-05-06 16:39 53.71999 6.64757 38931 ft 500 kts 59°
2026-05-06 16:39 53.75523 6.74896 38925 ft 500 kts 60°
2026-05-06 16:40 53.79029 6.84993 38925 ft 500 kts 59°
2026-05-06 16:40 53.82567 6.95140 38925 ft 500 kts 59°
2026-05-06 16:41 53.86105 7.05300 38922 ft 500 kts 59°
2026-05-06 16:41 53.89640 7.15491 38923 ft 501 kts 60°
2026-05-06 16:42 53.93145 7.25641 38924 ft 501 kts 60°
2026-05-06 16:42 53.96654 7.35849 38925 ft 501 kts 60°
2026-05-06 16:43 54.00158 7.46083 38921 ft 501 kts 60°
2026-05-06 16:43 54.03656 7.56342 38920 ft 502 kts 60°
2026-05-06 16:44 54.07155 7.66649 38914 ft 502 kts 60°
2026-05-06 16:44 54.10620 7.76896 38917 ft 502 kts 60°
2026-05-06 16:45 54.14135 7.87260 38908 ft 501 kts 57°
2026-05-06 16:45 54.18454 7.96502 38908 ft 501 kts 46°
2026-05-06 16:46 54.23344 8.05014 38923 ft 503 kts 44°
2026-05-06 16:46 54.28268 8.13547 38914 ft 503 kts 45°
2026-05-06 16:47 54.33116 8.22183 38909 ft 503 kts 46°
2026-05-06 16:47 54.37944 8.30901 38911 ft 503 kts 46°
2026-05-06 16:48 54.42734 8.39589 38907 ft 503 kts 46°
2026-05-06 16:48 54.47544 8.48336 38920 ft 504 kts 46°
2026-05-06 16:49 54.52353 8.57108 38912 ft 504 kts 46°
2026-05-06 16:49 54.57159 8.65909 38903 ft 504 kts 46°
2026-05-06 16:50 54.61966 8.74743 38908 ft 505 kts 46°
2026-05-06 16:50 54.66769 8.83602 38913 ft 505 kts 46°
2026-05-06 16:51 54.71540 8.92444 38910 ft 505 kts 46°
2026-05-06 16:51 54.76310 9.01410 38708 ft 508 kts 46°
2026-05-06 16:51 54.78706 9.05917 38420 ft 506 kts 46°
2026-05-06 16:52 54.81063 9.10341 37968 ft 505 kts 46°
2026-05-06 16:52 54.83447 9.14810 37457 ft 504 kts 46°
2026-05-06 16:52 54.85813 9.19274 36919 ft 502 kts 47°
2026-05-06 16:52 54.88144 9.23787 36412 ft 501 kts 48°
2026-05-06 16:53 54.90448 9.28320 35835 ft 499 kts 48°
2026-05-06 16:53 54.92741 9.32862 35329 ft 499 kts 49°
2026-05-06 16:53 54.95029 9.37406 34794 ft 499 kts 49°
2026-05-06 16:53 54.97317 9.41951 34281 ft 497 kts 49°
2026-05-06 16:54 54.99595 9.46479 33698 ft 496 kts 49°
2026-05-06 16:54 55.01865 9.50994 33114 ft 496 kts 49°
2026-05-06 16:54 55.04150 9.55540 32548 ft 497 kts 49°
2026-05-06 16:54 55.06427 9.60081 32002 ft 499 kts 49°
2026-05-06 16:55 55.08712 9.64671 31434 ft 501 kts 50°
2026-05-06 16:55 55.10780 9.69577 30858 ft 502 kts 59°
2026-05-06 16:55 55.12347 9.75019 30276 ft 501 kts 70°
2026-05-06 16:55 55.13452 9.80714 29644 ft 500 kts 76°
2026-05-06 16:56 55.14368 9.86571 29011 ft 499 kts 77°
2026-05-06 16:56 55.15245 9.92429 28373 ft 496 kts 77°
2026-05-06 16:56 55.16152 9.98249 27761 ft 491 kts 76°
2026-05-06 16:56 55.17094 10.03970 27173 ft 486 kts 75°
2026-05-06 16:57 55.18060 10.09614 26557 ft 482 kts 75°
2026-05-06 16:57 55.19025 10.15134 25952 ft 478 kts 74°
2026-05-06 16:57 55.20003 10.20680 25383 ft 475 kts 74°
2026-05-06 16:57 55.20975 10.26192 24775 ft 471 kts 74°
2026-05-06 16:58 55.21934 10.31652 24194 ft 468 kts 74°
2026-05-06 16:58 55.22884 10.37087 23608 ft 465 kts 73°
2026-05-06 16:58 55.23825 10.42496 22948 ft 461 kts 73°
2026-05-06 16:58 55.24751 10.47838 22332 ft 456 kts 73°
2026-05-06 16:59 55.25667 10.53140 21746 ft 451 kts 73°
2026-05-06 16:59 55.26567 10.58371 21184 ft 446 kts 73°
2026-05-06 16:59 55.27457 10.63565 20607 ft 442 kts 73°
2026-05-06 16:59 55.28325 10.68708 20052 ft 437 kts 73°
2026-05-06 17:00 55.29173 10.73740 19503 ft 433 kts 73°
2026-05-06 17:00 55.30029 10.78792 18951 ft 429 kts 73°
2026-05-06 17:00 55.30880 10.83798 18418 ft 426 kts 73°
2026-05-06 17:00 55.31724 10.88757 17816 ft 423 kts 73°
2026-05-06 17:01 55.32565 10.93694 17247 ft 418 kts 73°
2026-05-06 17:01 55.33387 10.98577 16690 ft 414 kts 73°
2026-05-06 17:01 55.34189 11.03403 16167 ft 409 kts 73°
2026-05-06 17:01 55.34971 11.08127 15656 ft 405 kts 73°
2026-05-06 17:02 55.35753 11.12856 15143 ft 401 kts 73°
2026-05-06 17:02 55.36527 11.17539 14641 ft 396 kts 73°
2026-05-06 17:02 55.37292 11.22174 14141 ft 392 kts 73°
2026-05-06 17:02 55.38046 11.26753 13648 ft 389 kts 73°
2026-05-06 17:03 55.38793 11.31295 13112 ft 385 kts 73°
2026-05-06 17:03 55.39507 11.35795 12806 ft 380 kts 77°
2026-05-06 17:03 55.39885 11.40424 12789 ft 381 kts 85°
2026-05-06 17:03 55.40053 11.45050 12224 ft 364 kts 87°
2026-05-06 17:04 55.40151 11.49208 11810 ft 326 kts 87°
2026-05-06 17:04 55.40249 11.53044 11248 ft 312 kts 86°
2026-05-06 17:04 55.40368 11.56864 10349 ft 302 kts 86°
2026-05-06 17:04 55.40498 11.60478 9561 ft 293 kts 86°
2026-05-06 17:05 55.40635 11.63998 9049 ft 282 kts 85°
2026-05-06 17:05 55.40778 11.67484 8655 ft 286 kts 85°
2026-05-06 17:05 55.40921 11.70910 8269 ft 281 kts 85°
2026-05-06 17:05 55.41065 11.74308 7996 ft 274 kts 85°
2026-05-06 17:06 55.41207 11.77647 7946 ft 273 kts 84°
2026-05-06 17:06 55.41350 11.80986 7946 ft 272 kts 85°
2026-05-06 17:06 55.41492 11.84315 7948 ft 273 kts 85°
2026-05-06 17:06 55.41634 11.87655 7950 ft 273 kts 84°
2026-05-06 17:07 55.41775 11.90988 7954 ft 273 kts 85°
2026-05-06 17:07 55.41915 11.94325 7936 ft 271 kts 84°
2026-05-06 17:07 55.42051 11.97571 7343 ft 270 kts 85°
2026-05-06 17:07 55.42187 12.00858 6844 ft 265 kts 84°
2026-05-06 17:08 55.42321 12.04073 6391 ft 259 kts 85°
2026-05-06 17:08 55.42449 12.07191 5897 ft 255 kts 85°
2026-05-06 17:08 55.42575 12.10293 5364 ft 254 kts 85°
2026-05-06 17:08 55.42700 12.13389 4977 ft 247 kts 85°
2026-05-06 17:09 55.42818 12.16322 4594 ft 241 kts 85°
2026-05-06 17:09 55.42936 12.19237 4198 ft 237 kts 86°
2026-05-06 17:09 55.43051 12.22109 3805 ft 233 kts 86°
2026-05-06 17:09 55.43163 12.24928 3412 ft 229 kts 86°
2026-05-06 17:10 55.43272 12.27699 3062 ft 222 kts 87°
2026-05-06 17:10 55.43376 12.30331 3001 ft 209 kts 87°
2026-05-06 17:10 55.43477 12.32909 3000 ft 209 kts 87°
2026-05-06 17:10 55.43734 12.35310 2973 ft 198 kts 70°
2026-05-06 17:11 55.44543 12.37287 3004 ft 202 kts 50°
2026-05-06 17:11 55.45489 12.38990 2987 ft 184 kts 50°
2026-05-06 17:11 55.46365 12.40504 2998 ft 186 kts 49°
2026-05-06 17:11 55.47337 12.42090 2997 ft 190 kts 45°
2026-05-06 17:12 55.48339 12.43610 2955 ft 185 kts 45°
2026-05-06 17:12 55.49289 12.45052 2697 ft 179 kts 46°
2026-05-06 17:12 55.50220 12.46481 2462 ft 177 kts 46°
2026-05-06 17:12 55.51148 12.47906 2216 ft 176 kts 47°
2026-05-06 17:13 55.52059 12.49307 1963 ft 165 kts 46°
2026-05-06 17:13 55.52868 12.50542 1734 ft 146 kts 47°
2026-05-06 17:13 55.53605 12.51678 1520 ft 138 kts 48°
2026-05-06 17:13 55.54320 12.52786 1371 ft 136 kts 48°
2026-05-06 17:14 55.55026 12.53877 1177 ft 133 kts 48°
2026-05-06 17:14 55.55720 12.54950 986 ft 134 kts 48°
2026-05-06 17:14 55.56451 12.56082 784 ft 139 kts 47°
2026-05-06 17:14 55.57171 12.57150 590 ft 135 kts 49°
2026-05-06 17:15 55.57906 12.58318 404 ft 142 kts 47°
2026-05-06 17:15 55.58657 12.59464 230 ft 145 kts 46°
2026-05-06 17:15 55.59394 12.60613 37 ft 138 kts 44°
2026-05-06 17:15 55.59981 12.61529 33 ft 92 kts 40°
2026-05-06 17:16 55.60415 12.62141 31 ft 70 kts 30°
2026-05-06 17:16 55.60656 12.62355 33 ft 22 kts 10°
2026-05-06 17:16 55.60804 12.62428 31 ft 22 kts 28°
2026-05-06 17:16 55.60917 12.62592 31 ft 21 kts 42°
2026-05-06 17:17 55.61025 12.62761 31 ft 20 kts 42°
2026-05-06 17:17 55.61124 12.62929 31 ft 20 kts 45°
2026-05-06 17:17 55.61227 12.63074 31 ft 18 kts 38°
2026-05-06 17:17 55.61319 12.63215 32 ft 17 kts 41°
2026-05-06 17:18 55.61413 12.63349 31 ft 17 kts 38°
2026-05-06 17:18 55.61479 12.63462 31 ft 12 kts 42°
2026-05-06 17:18 55.61542 12.63545 31 ft 11 kts 29°
2026-05-06 17:18 55.61583 12.63594 31 ft 4 kts 45°
2026-05-06 17:19 55.61637 12.63699 31 ft 21 kts 45°
2026-05-06 17:19 55.61770 12.63913 32 ft 28 kts 41°
2026-05-06 17:19 55.61921 12.64108 31 ft 26 kts 27°
2026-05-06 17:19 55.62079 12.64242 31 ft 25 kts 26°
2026-05-06 17:20 55.62226 12.64362 28 ft 20 kts 21°
2026-05-06 17:20 55.62334 12.64419 31 ft 12 kts 15°
2026-05-06 17:20 55.62353 12.64428 31 ft 0 kts 15°
2026-05-06 17:23 55.62354 12.64428 31 ft 0 kts 15°
2026-05-06 17:23 55.62358 12.64431 31 ft 2 kts 14°
2026-05-06 17:23 55.62379 12.64440 31 ft 5 kts 14°
2026-05-06 17:24 55.62402 12.64457 31 ft 1 kts 38°
2026-05-06 17:24 55.62403 12.64480 29 ft 6 kts 84°
2026-05-06 17:24 55.62380 12.64565 31 ft 9 kts 125°
2026-05-06 17:24 55.62344 12.64656 31 ft 9 kts 124°
2026-05-06 17:25 55.62328 12.64751 31 ft 7 kts 86°
2026-05-06 17:25 55.62339 12.64784 30 ft 1 kts 35°
2026-05-06 17:25 55.62351 12.64785 31 ft 6 kts
2026-05-06 17:25 55.62422 12.64779 31 ft 13 kts 356°
2026-05-06 17:26 55.62488 12.64771 30 ft 15 kts 356°
2026-05-06 17:26 55.62598 12.64766 31 ft 15 kts
2026-05-06 17:26 55.62634 12.64774 31 ft 2 kts
2026-05-06 17:26 55.62649 12.64778 31 ft 3 kts
2026-05-06 17:27 55.62661 12.64785 31 ft 0 kts 26°
2026-05-06 17:27 55.62662 12.64789 31 ft 1 kts 41°
2026-05-06 17:27 55.62664 12.64803 31 ft 2 kts 70°
2026-05-06 17:27 55.62665 12.64845 31 ft 3 kts 95°
2026-05-06 17:28 55.62662 12.64875 31 ft 2 kts 100°
2026-05-06 17:28 55.62660 12.64891 29 ft 0 kts 101°